Погода в Елауре

Россия / Ульяновская область     54°34′08″N   50°21′45″E
темп.,
°C
ветер,
м/с
пор.,
м/с
влажн.,
%
обл.,
%
осадки,
мм/ч
давл.,
гПа
погр.,
м
6 марта, сб
сб601:00−12зюз339510 0.0 101040
04:00−13юз33965 0.0 101160
07:00−12зюз379798 0.1 1011168
10:00−9зсз489396 0.1 1013371
13:00−8зсз478394 0.0 1014745
16:00−9сз368478 0.0 1014575
19:00−13з229189 0.0 101420
22:00−15зюз129178 0.0 101420
7 марта, вс
вс701:00−17зюз12910 0.0 101320
04:00−18юз12930 0.0 101320
07:00−18ююз229559 0.0 101220
10:00−13юз249469 0.1 1012207
13:00−8юз359199 0.1 1011463
16:00−8ююз469199 0.1 1009488
19:00−10ю4119598 0.1 1007355
22:00−9ююз6139299 0.1 1006654
8 марта, пн
пн801:00−7ююз71494100 1.4 1001937
04:00−5ююз71494100 3.1 9981053
07:00−6з41081100 1.4 998546
10:00−7зюз5108258 1.4 1000435
13:00−5ююз598035 0.0 1001566
16:00−4ю5107847 0.0 999881
19:00−4ююв41096100 0.8 996408
22:00−7зюз6137897 1.1 995794
9 марта, вт
вт901:00−8юз71492100 0.3 997711
04:00−7з61292100 0.8 1000784
07:00−12зюз51391100 0.1 1003522
10:00−10з5990100 0.1 1006614
13:00−9з5888100 0.1 1008673
16:00−9з4787100 0.2 1009756
19:00−14з359499 0.1 101097
22:00−16з239795 0.1 101233
10 марта, ср
ср1001:00−18з239892 0.0 101240
04:00−18зсз249897 0.1 101392
07:00−17зсз259794 0.1 1014158
10:00−15зсз479297 0.1 1015428
13:00−13сз4688100 0.1 1016648
16:00−14сз4687100 0.1 1016662
19:00−19зсз359697 0.0 1018101
22:00−21зсз359873 0.1 1020101